Abhaipura, India

9:52 PM IST on January 23, 2018 (GMT +0530)
Abhaipura

Weather History for 42348 - September, 2012

Change the Weather History Date:

Friday, September 7, 2012

  Actual Average Record
Temperature  
Mean Temperature 79 °F -  
Max Temperature 83 °F - - ()
Min Temperature 75 °F - - ()
Cooling Degree Days 14    
Growing Degree Days 29 (Base 50)    
Moisture  
Dew Point 77 °F    
Average Humidity 99    
Maximum Humidity 100    
Minimum Humidity 94    
Precipitation  
Precipitation 0.00 in - - ()
Sea Level Pressure  
Sea Level Pressure 29.62 in    
Wind  
Wind Speed 8 mph ()    
Max Wind Speed 15 mph    
Max Gust Speed -    
Visibility 1.3 miles    
Events Rain , Thunderstorm    
T = Trace of Precipitation, MM = Missing Value Source: Averaged Metar Reports

Daily Weather History Graph

Daily Weather History Graph

Search for Another Location

Airport or City:

Trip Planner

Search our weather history database for the weather conditions in past years. The results will help you decide how hot, cold, wet, or windy it might be!

Date:

Astronomy

Sep. 07, 2012 Rise Set
Actual Time 6:08 AM IST 6:40 PM IST
Civil Twilight 5:45 AM IST 7:03 PM IST
Nautical Twilight 5:18 AM IST 7:30 PM IST
Astronomical Twilight 4:50 AM IST 7:58 PM IST
Moon 10:53 PM IST (9/7) 11:58 AM IST (9/7)
Length of Visible Light 13h 18m
Length of Day
12h 31m
Waning Gibbous, 62% of the Moon is Illuminated
Sep 7
Waning Gibbous
Sep 8
Last Quarter
Sep 16
New
Sep 23
First Quarter
Sep 30
Full

Hourly Weather History & Observations

Time (IST) Temp. Heat Index Dew Point Humidity Pressure Visibility Wind Dir Wind Speed Gust Speed Precip Events Conditions
3:00 AM 77.0 °F - 75.2 °F 94% 29.62 in 1.9 mi East 10.4 mph - N/A   Haze
4:00 AM 77.0 °F - 75.2 °F 94% 29.62 in 1.9 mi East 9.2 mph - N/A   Haze
5:30 AM 76 °F - 75 °F 97% 29.56 in 1 mi ENE 6.9 mph - - Rain , Thunderstorm Thunderstorms and Rain
7:00 AM 75.2 °F - 75.2 °F 100% 29.62 in 1.6 mi ENE 6.9 mph - N/A   Light Drizzle
8:00 AM 75.2 °F - 75.2 °F 100% 29.65 in 1.2 mi East 9.2 mph - N/A Rain Light Rain
8:30 AM 76 °F - 75 °F 97% 29.59 in 1 mi East 6.9 mph - - Rain Light Rain
11:30 AM 79 °F - 79 °F 99% 29.62 in 1 mi ESE 9.2 mph - - Rain Light Rain
12:00 PM 80.6 °F 89.3 °F 80.6 °F 100% 29.68 in 1.6 mi ESE 12.7 mph - N/A Rain Light Rain
1:30 PM 78.8 °F - 78.8 °F 100% 29.65 in 1.6 mi ESE 15.0 mph - N/A Rain Rain
3:30 PM 80.6 °F 89.3 °F 80.6 °F 100% 29.59 in 1.2 mi ESE 11.5 mph - N/A Rain Rain
4:00 PM 78.8 °F - 78.8 °F 100% 29.59 in 1.2 mi SE 8.1 mph - N/A   Drizzle
4:30 PM 80.6 °F 89.3 °F 80.6 °F 100% 29.59 in 1.2 mi ESE 11.5 mph - N/A Rain , Thunderstorm Thunderstorms and Rain
5:00 PM 77.0 °F - 77.0 °F 100% 29.59 in 1.2 mi SE 8.1 mph - N/A Rain , Thunderstorm Light Thunderstorms and Rain
5:30 PM 77 °F - 77 °F 98% 29.55 in 1 mi ESE 6.9 mph - - Rain , Thunderstorm Thunderstorms and Rain
5:30 PM 77.0 °F - 77.0 °F 100% 29.59 in 1.2 mi ESE 8.1 mph - N/A Rain , Thunderstorm Light Thunderstorms and Rain
6:00 PM 77.0 °F - 77.0 °F 100% 29.59 in 1.2 mi ESE 8.1 mph - N/A Rain , Thunderstorm Light Thunderstorms and Rain
6:30 PM 77.0 °F - 77.0 °F 100% 29.62 in 1.2 mi East 6.9 mph - N/A Rain , Thunderstorm Light Thunderstorms and Rain
7:00 PM 77.0 °F - 77.0 °F 100% 29.62 in 1.2 mi East 8.1 mph - N/A Rain , Thunderstorm Light Thunderstorms and Rain
8:00 PM 77.0 °F - 77.0 °F 100% 29.65 in 1.2 mi ESE 6.9 mph - N/A   Mostly Cloudy
8:30 PM 77 °F - 77 °F 98% 29.60 in 1 mi SE 11.5 mph - - Rain Light Drizzle
8:30 PM 75.2 °F - 75.2 °F 100% 29.65 in 1.2 mi SSE 12.7 mph - N/A   Drizzle
9:00 PM 75.2 °F - 75.2 °F 100% 29.65 in 1.2 mi South 8.1 mph - N/A   Overcast
9:30 PM 75.2 °F - 75.2 °F 100% 29.68 in 1.2 mi Calm Calm - N/A   Drizzle
10:00 PM 75.2 °F - 75.2 °F 100% 29.68 in 1.2 mi Variable 2.3 mph - N/A   Drizzle
10:30 PM 75.2 °F - 75.2 °F 100% 29.68 in 1.2 mi Variable 2.3 mph - N/A   Drizzle
11:00 PM 75.2 °F - 75.2 °F 100% 29.68 in 1.2 mi East 4.6 mph - N/A   Drizzle